[ hide orbit diagram ]
For accurate long-term ephemerides, please instead use our Horizons system.This orbit viewer was implemented using two-body methods, and hence should not be used for determining accurate long-term trajectories (over several years or decades) or planetary encounter circumstances.
Orbital Elements at Epoch 2459200.5 (2020-Dec-17.0) TDB
Reference: JPL 35 (heliocentric ecliptic J2000)
Element | Value | Uncertainty (1-sigma) | Units |
e | .1265767191702145 | 1.7193e-08 | |
a | 3.144776229158386 | 1.3948e-08 | au |
q | 2.746720771547039 | 5.2231e-08 | au |
i | 21.76097897738268 | 6.622e-07 | deg |
node | 19.56223735647119 | 2.2282e-06 | deg |
peri | 64.33134177113985 | 1.2646e-05 | deg |
M | 15.15634012943253 | 1.0368e-05 | deg |
tp | 2459114.741951227715 (2020-Sep-22.24195123) | 5.8564e-05 | TDB |
period | 2036.962571067509 5.58 | 1.3552e-05 3.71e-08 | d yr |
n | .1767337334094142 | 1.1758e-09 | deg/d |
Q | 3.542831686769733 | 1.5714e-08 | au |
|
| | Orbit Determination Parameters
Additional Information
|
[ show covariance matrix ]
Physical Parameter Table
Parameter |
Symbol |
Value |
Units |
Sigma |
Reference |
Notes |
absolute magnitude |
H |
12.68 |
|
n/a |
E2021B10 |
|
diameter |
diameter |
12.943 |
km |
0.090 |
urn:nasa:pds:neowise_diameters_albedos::2.0[mainbelt] (http://adsabs.harvard.edu/abs/2011ApJ...741...68M) |
|
geometric albedo |
albedo |
0.127 |
|
0.022 |
urn:nasa:pds:neowise_diameters_albedos::2.0[mainbelt] (http://adsabs.harvard.edu/abs/2011ApJ...741...68M) |
|
|
14424 Laval | Discovered 1991 Sept. 30 by Spacewatch at Kitt Peak. |
Located in Quebec City, Université Laval was founded as the Séminaire de Québec in 1663 by Monseigneur François de Laval, the first bishop of New France. Granted a royal charter in 1852, it was the first institution in North America to offer higher education in French. |
NOTE: some special characters may not display properly (any characters within {} are an attempt to place the proper accent above a character) |
Reference: 20030614/MPCPages.arc | Last Updated: 2005-04-26 |
|
|